[TLELIST] Archives

 

[list_settings.list_name] Current TLEs

April 5th 2014 PST

HST 1 20580U 90037B 14094.61155800 .00004203 00000-0 27637-3 0 4732 2 20580 028.4693 160.7041 0002968 212.5557 300.3781 15.05099897113628 ISS (ZARYA) 1 25544U 98067A 14095.40411826 .00016379 00000-0 28925-3 0 159 2 25544 051.6494 100.2749 0001934 350.8660 156.1189 15.50500013880039 CXO 1 25867U 99040B 14096.48533442 .00000138 00000-0 00000+0 0 119 2 25867 076.7133 323.8973 8210417 275.0071 359.7970 00.37799767 11644 ____________________________________________________________________ These 2-Line ...Continue Reading

[list_settings.list_name] Current TLEs

April 4th 2014 PST

HST 1 20580U 90037B 14093.61010425 .00004264 00000-0 28058-3 0 4728 2 20580 028.4692 167.2842 0002989 201.0624 274.9397 15.05090680113472 ISS (ZARYA) 1 25544U 98067A 14094.43788407 -.00144922 00000-0 -25393-2 0 88 2 25544 051.6509 105.0598 0003917 331.5488 178.5988 15.50423440879882 CXO 1 25867U 99040B 14096.48533442 .00000138 00000-0 00000+0 0 119 2 25867 076.7133 323.8973 8210417 275.0071 359.7970 00.37799767 11644 ____________________________________________________________________ These 2-Line ...Continue Reading

[list_settings.list_name] Current TLEs

April 3rd 2014 PST

HST 1 20580U 90037B 14092.48021456 .00005138 00000-0 34060-3 0 4718 2 20580 028.4693 174.7077 0003106 187.8597 273.9630 15.05079953113297 ISS (ZARYA) 1 25544U 98067A 14093.46476597 .00017001 00000-0 29742-3 0 48 2 25544 051.6486 109.8867 0003541 349.1939 125.3572 15.50733612879734 CXO 1 25867U 99040B 14093.84129857 .00000051 00000-0 00000+0 0 100 2 25867 076.6994 324.0341 8214387 275.0430 359.8194 00.37803489 11634 ____________________________________________________________________ These 2-Line ...Continue Reading

[list_settings.list_name] Current TLEs

April 2nd 2014 PST

HST 1 20580U 90037B 14090.69958959 .00005051 00000-0 33476-3 0 4709 2 20580 028.4696 186.4065 0003203 169.2098 345.6691 15.05066073113030 ISS (ZARYA) 1 25544U 98067A 14092.43945322 .00017011 00000-0 29798-3 0 9985 2 25544 051.6484 114.9721 0003541 346.6498 160.2311 15.50697815879575 CXO 1 25867U 99040B 14093.84129857 .00000051 00000-0 00000+0 0 100 2 25867 076.6994 324.0341 8214387 275.0430 359.8194 00.37803489 11634 ____________________________________________________________________ These 2-Line ...Continue Reading

[list_settings.list_name] Current TLEs

April 1st 2014 PST

HST 1 20580U 90037B 14090.69958959 .00005051 00000-0 33476-3 0 4709 2 20580 028.4696 186.4065 0003203 169.2098 345.6691 15.05066073113030 ISS (ZARYA) 1 25544U 98067A 14091.40736632 .00018663 00000-0 32648-3 0 9918 2 25544 051.6488 120.0917 0003381 342.2352 159.2688 15.50663641879415 CXO 1 25867U 99040B 14093.84129857 .00000051 00000-0 00000+0 0 100 2 25867 076.6994 324.0341 8214387 275.0430 359.8194 00.37803489 11634 ____________________________________________________________________ These 2-Line ...Continue Reading

[list_settings.list_name] Current TLEs

March 31st 2014 PST

HST 1 20580U 90037B 14089.49333993 .00004446 00000-0 29338-3 0 4697 2 20580 028.4699 194.3308 0003344 157.3438 288.9128 15.05054252112841 ISS (ZARYA) 1 25544U 98067A 14090.42839916 .00009149 00000-0 16452-3 0 9844 2 25544 051.6504 124.9471 0003494 331.2992 101.6740 15.50615007879261 CXO 1 25867U 99040B 14091.19834908 -.00000037 00000-0 00000+0 0 99 2 25867 076.6980 324.1598 8217098 275.0816 359.9848 00.37803269 11626 ____________________________________________________________________ These 2-Line ...Continue Reading

[list_settings.list_name] Current TLEs

March 30th 2014 PST

HST 1 20580U 90037B 14087.77724976 .00005095 00000-0 33807-3 0 4687 2 20580 028.4700 205.6047 0003452 139.5271 350.3113 15.05038116112598 ISS (ZARYA) 1 25544U 98067A 14089.47385416 .00008545 00000-0 15440-3 0 9786 2 25544 051.6486 129.6807 0003372 326.2363 174.7651 15.50575815879114 CXO 1 25867U 99040B 14091.19834908 -.00000037 00000-0 00000+0 0 99 2 25867 076.6980 324.1598 8217098 275.0816 359.9848 00.37803269 11626 ____________________________________________________________________ These 2-Line ...Continue Reading

[list_settings.list_name] Current TLEs

March 29th 2014 PST

HST 1 20580U 90037B 14087.77724976 .00005095 00000-0 33807-3 0 4687 2 20580 028.4700 205.6047 0003452 139.5271 350.3113 15.05038116112598 ISS (ZARYA) 1 25544U 98067A 14088.44217881 .00019745 00000-0 34643-3 0 9715 2 25544 051.6478 134.7982 0003762 330.7005 167.6271 15.50537607878959 CXO 1 25867U 99040B 14091.19834908 -.00000037 00000-0 00000+0 0 99 2 25867 076.6980 324.1598 8217098 275.0816 359.9848 00.37803269 11626 ____________________________________________________________________ These 2-Line ...Continue Reading

[list_settings.list_name] Current TLEs

March 28th 2014 PST

HST 1 20580U 90037B 14086.64732154 .00005283 00000-0 35105-3 0 4670 2 20580 028.4700 213.0284 0003441 126.6872 348.9827 15.05025231112427 ISS (ZARYA) 1 25544U 98067A 14087.47013709 .00020421 00000-0 35041-3 0 9648 2 25544 051.6497 139.6140 0003588 005.7333 102.1274 15.51142863878807 CXO 1 25867U 99040B 14088.55445371 .00000061 00000-0 00000+0 0 82 2 25867 076.7025 324.2464 8222499 275.1335 000.0458 00.37803907 11617 ____________________________________________________________________ These 2-Line ...Continue Reading

[list_settings.list_name] Current TLEs

March 27th 2014 PST

HST 1 20580U 90037B 14084.79610093 .00005890 00000-0 39293-3 0 4666 2 20580 028.4693 225.1911 0003503 104.9816 040.8650 15.05006090112148 ISS (ZARYA) 1 25544U 98067A 14086.37490258 .00021263 00000-0 36505-3 0 9577 2 25544 051.6491 145.0485 0003545 359.1426 108.8600 15.51100425878631 CXO 1 25867U 99040B 14088.55445371 .00000061 00000-0 00000+0 0 82 2 25867 076.7025 324.2464 8222499 275.1335 000.0458 00.37803907 11617 ____________________________________________________________________ These 2-Line ...Continue Reading
  • This mailing list is a public mailing list - anyone may join or leave, at any time.
  • This mailing list is announce-only.

International Space Station (ISS) / Hubble Space Telescope (HST) / Chandra X-Ray Observatory Orbital Data via EMAIL

Privacy Policy:

Private list